Theta_e
308 308 307 307 305 305 306 306 306 306 306 306 305 306 305 305 305 305 306 306 306 305 306 306 306 307 307 307 307 308 307 306 303 301 302 302 303 303 304 304 302 301 301 301 301 303 304 304 305 303 305 306 305 305 304 307 309 307 311 311 308 309 309 311 312 307 309 310 308 307 305 306 308 307 305 303 303 305 304 304 304 303 302 302 303 303 303 303
307 307 308 307 306 305 306 306 306 306 306 305 305 305 305 305 306 305 305 306 306 305 306 306 306 306 306 307 307 307 307 304 302 300 301 301 301 303 304 302 302 301 301 301 302 303 304 307 305 305 310 308 304 305 305 305 307 311 312 308 308 310 309 310 312 308 306 308 309 308 306 305 306 305 303 304 305 304 304 304 302 303 303 302 302 301 303 302
306 306 307 307 307 306 306 306 305 306 306 305 305 305 305 305 306 305 305 305 306 305 306 306 306 306 306 307 306 307 305 301 302 303 303 302 302 303 302 301 301 301 301 302 303 302 304 306 302 306 314 310 307 307 308 306 307 312 311 309 310 310 308 307 311 311 308 306 307 308 305 305 306 304 303 305 306 304 303 303 303 305 306 307 307 302 300 301
306 306 306 307 307 307 306 306 305 306 305 305 304 304 305 305 305 305 305 305 306 306 305 305 306 305 306 306 306 306 301 300 304 307 306 307 307 304 301 301 301 301 302 302 303 303 303 304 304 309 313 310 310 307 308 309 307 307 307 311 312 307 307 308 309 312 310 305 305 308 304 305 306 304 304 304 305 304 304 304 303 305 307 311 313 305 299 300
307 306 306 306 307 307 307 305 305 305 305 304 304 304 304 305 305 305 305 305 305 306 305 305 305 305 306 306 307 304 300 301 305 305 308 311 308 304 302 301 301 302 302 302 303 303 303 304 307 313 313 310 309 308 310 309 306 307 306 311 312 305 306 308 307 309 309 305 304 306 304 305 304 303 305 305 304 304 306 307 305 307 308 308 308 303 300 301
307 307 307 307 306 306 307 306 305 305 305 304 304 304 304 304 305 305 305 305 305 305 305 306 305 305 306 305 305 302 300 301 304 304 308 309 306 302 302 302 301 302 302 303 302 303 306 307 307 311 313 310 309 308 310 307 305 309 309 309 310 307 307 307 305 306 305 303 305 306 303 304 303 304 306 304 304 303 304 307 306 306 305 302 301 301 303 305
308 307 307 307 306 306 306 306 306 305 305 305 304 304 304 304 304 304 304 305 305 305 304 305 305 305 306 304 303 302 302 305 304 304 306 306 305 302 302 302 302 303 302 302 302 306 310 309 309 311 311 310 309 308 308 307 305 307 311 309 307 306 307 306 305 305 302 303 306 305 302 302 305 306 304 303 303 302 301 303 304 303 299 299 302 303 304 305
309 308 308 307 307 307 306 306 305 305 306 305 305 304 304 304 304 304 304 304 305 304 304 305 305 305 306 303 303 304 305 306 303 304 305 304 304 302 302 302 302 303 302 301 302 307 309 308 310 309 310 310 308 307 306 307 307 307 311 312 307 305 309 309 305 305 303 303 303 302 302 303 305 305 303 303 302 303 302 302 304 304 302 303 305 305 304 304
309 309 308 308 307 307 306 306 305 306 306 305 305 305 305 304 304 304 303 304 304 304 304 304 305 305 305 302 300 303 305 304 302 303 303 302 302 302 302 301 302 303 302 302 301 303 306 309 310 307 309 310 307 307 307 309 310 309 310 311 307 305 309 307 305 307 305 302 301 301 304 305 304 303 303 304 302 302 302 304 306 305 305 306 305 305 304 306
310 309 309 308 307 307 306 306 306 306 306 306 306 305 305 304 304 304 303 304 304 304 304 304 305 304 305 303 300 301 303 302 302 304 302 301 301 301 302 302 303 303 301 301 301 302 304 306 307 306 308 308 305 305 307 309 308 307 308 309 307 305 307 305 306 310 304 301 302 302 304 304 302 301 303 306 307 304 304 308 309 307 308 308 309 308 304 305
311 310 309 309 308 308 307 307 307 307 307 307 307 306 305 304 304 303 303 303 303 304 304 304 304 304 304 303 302 303 303 302 302 303 302 301 301 301 302 302 302 302 301 301 300 301 302 301 302 304 305 306 304 302 305 306 304 305 305 305 308 308 307 305 307 307 302 303 304 302 303 305 302 302 304 307 310 309 307 311 312 310 311 310 309 307 305 304
310 310 310 310 309 308 307 307 307 307 307 307 307 306 305 305 304 303 303 303 303 303 303 303 303 304 304 304 303 303 302 302 302 302 301 302 302 302 302 302 303 303 302 301 301 301 301 301 301 304 304 305 304 301 303 305 304 305 304 303 310 310 308 307 308 305 302 304 306 304 304 306 305 305 306 304 307 307 306 309 311 310 311 308 306 306 304 303
307 308 310 310 310 309 308 308 308 308 308 307 307 306 306 305 304 304 303 303 303 303 303 303 303 303 304 305 304 302 301 301 302 301 301 302 302 302 302 303 303 302 302 301 301 302 302 302 303 305 305 307 306 301 304 307 304 304 303 303 308 310 309 305 304 303 302 305 307 306 303 306 309 309 309 305 303 306 307 308 309 310 311 307 306 305 304 302
304 305 307 308 309 309 309 308 308 308 308 308 307 307 307 306 305 304 303 303 303 302 303 303 304 304 304 305 303 302 302 301 302 302 301 302 302 302 302 303 303 302 302 301 301 301 303 303 302 302 302 306 305 299 306 312 308 304 302 303 305 307 310 304 301 304 302 305 306 304 303 306 308 311 313 307 302 305 310 310 309 310 311 307 305 304 303 302
302 303 304 306 307 307 309 309 309 309 309 308 308 307 307 306 305 305 304 304 303 302 303 303 304 304 304 304 303 303 303 301 302 302 301 302 302 302 302 303 303 302 302 301 301 301 302 303 302 303 303 302 302 301 308 311 310 309 303 304 305 304 309 309 305 305 305 305 305 304 306 307 306 307 308 308 306 307 311 312 308 307 308 305 303 302 302 301
301 302 303 304 305 305 306 308 309 309 309 309 308 307 307 306 306 305 305 304 303 302 303 303 303 303 304 303 301 302 303 302 302 302 302 302 301 302 302 302 302 302 302 301 301 301 301 303 303 304 304 302 304 307 306 303 306 309 304 304 309 305 306 309 306 303 306 306 305 306 307 308 308 306 304 306 309 309 310 310 306 304 305 303 302 302 301 301
301 301 302 302 303 304 305 306 307 309 309 309 308 308 307 306 306 306 305 303 303 302 302 304 303 303 305 302 300 303 303 302 302 302 302 301 301 301 301 302 302 300 300 300 300 300 300 303 302 302 305 306 305 306 304 301 302 303 303 305 309 308 305 306 306 302 302 305 306 308 306 305 306 305 304 305 307 307 307 306 304 303 302 301 301 301 301 300
300 301 301 300 300 302 303 304 305 307 309 309 308 308 307 307 306 304 303 303 302 302 302 302 302 304 306 303 302 303 302 302 302 302 302 302 301 301 301 302 300 298 299 299 299 299 300 303 304 304 305 305 302 301 301 302 302 301 304 305 306 307 305 307 308 303 301 303 306 308 306 304 304 303 303 304 305 306 304 303 302 302 301 300 300 301 300 300
299 299 300 300 299 300 301 302 303 305 307 309 309 308 307 306 304 302 301 302 302 303 304 303 302 304 305 304 303 302 301 301 302 301 302 302 301 301 301 300 300 300 300 300 299 300 303 304 304 304 303 302 301 299 300 304 305 304 304 305 306 307 306 308 309 303 300 303 305 306 306 304 303 303 302 302 305 305 303 302 301 300 300 300 300 300 300 300
298 298 299 299 299 299 299 300 302 303 305 307 308 307 307 306 305 304 302 302 302 304 305 303 302 304 304 303 302 302 302 302 301 302 302 302 301 301 301 299 301 303 300 302 302 301 302 302 302 302 302 303 301 299 303 307 307 308 306 306 307 306 307 308 306 303 301 303 306 305 304 304 301 302 301 299 302 303 302 301 300 300 300 300 301 300 300 300
297 297 298 298 299 299 299 298 300 302 303 306 308 306 306 306 308 307 303 303 302 302 303 302 301 303 303 302 301 302 302 302 302 302 302 302 301 302 302 301 302 302 301 304 305 301 301 301 300 301 304 305 302 301 303 304 304 307 307 306 308 308 311 308 301 302 303 302 306 306 304 304 301 302 301 300 301 301 301 301 300 301 300 300 301 300 300 300
296 297 296 297 297 298 299 298 298 301 303 306 306 305 304 304 305 304 302 303 303 302 302 302 300 301 301 300 301 301 302 304 304 302 302 302 302 303 303 302 302 303 302 303 303 303 302 301 300 302 305 304 302 302 302 301 301 305 306 304 305 306 308 308 301 301 304 304 307 308 305 304 303 302 302 301 301 301 301 301 301 300 300 300 300 300 300 300
297 296 296 296 296 297 298 298 299 303 305 305 306 304 304 304 303 302 302 303 303 302 303 302 302 301 300 300 300 301 303 304 305 304 302 302 302 304 303 301 302 303 303 302 303 304 304 302 302 303 304 302 301 303 303 302 301 303 305 303 303 304 305 309 306 302 302 302 303 305 303 302 303 304 303 302 301 302 302 301 302 301 300 300 299 300 300 300
296 296 296 296 296 297 297 297 300 302 301 303 306 304 304 303 302 302 302 303 304 303 302 302 302 302 302 301 300 302 303 303 305 304 302 302 303 303 303 302 302 302 301 301 302 303 303 302 300 301 301 300 303 304 302 302 302 302 303 301 301 305 304 305 306 304 304 302 299 303 305 305 309 310 311 310 305 304 304 302 303 301 299 299 299 300 299 299
296 296 296 296 296 296 296 298 300 299 298 302 305 304 304 303 302 302 302 303 305 303 301 301 301 302 302 301 300 302 303 303 304 303 301 302 302 302 303 302 302 302 301 301 301 302 302 301 300 301 300 300 302 304 302 302 302 302 304 302 301 306 306 303 305 306 309 310 302 301 305 310 316 317 320 317 310 309 306 303 304 302 300 300 300 299 298 298
295 295 296 296 296 296 296 299 299 297 299 303 303 302 304 303 303 303 302 305 306 304 303 304 305 305 303 301 301 302 304 303 302 302 302 302 302 303 303 302 302 303 301 302 302 301 301 300 302 303 301 301 302 301 301 301 301 302 303 302 300 304 305 305 304 304 310 313 302 299 307 310 308 311 316 314 311 311 307 304 303 302 301 299 299 299 298 299
295 295 295 295 296 296 296 297 297 297 300 301 299 300 302 303 303 302 303 306 307 306 307 306 304 304 303 301 301 303 306 304 302 302 302 302 303 302 303 303 302 302 300 302 303 302 301 300 302 304 303 302 301 300 301 300 302 304 301 300 301 302 304 305 305 304 308 307 301 301 308 307 305 307 310 308 308 311 310 309 306 303 304 302 298 296 297 299
295 295 295 295 295 296 295 296 296 296 299 298 296 299 302 303 302 302 304 307 308 308 309 305 302 302 303 301 302 304 303 302 304 304 300 302 303 302 303 303 302 302 301 303 303 302 301 301 302 303 303 302 301 302 302 300 302 304 299 298 300 300 304 307 309 309 306 303 303 305 303 304 308 309 308 305 307 312 313 315 311 306 306 308 305 298 296 297
294 294 295 295 295 294 294 295 295 295 297 296 294 298 301 301 301 303 305 307 310 311 310 306 303 302 302 301 302 304 301 300 304 304 301 301 302 302 304 303 302 302 301 302 303 303 301 301 301 301 301 302 303 304 301 300 303 300 296 298 299 300 302 305 309 312 308 305 306 307 303 303 307 308 308 306 307 313 312 313 313 307 304 307 312 307 300 298
294 294 294 295 294 294 294 293 293 294 295 293 293 297 300 300 302 304 305 307 308 310 308 306 306 303 302 302 302 302 302 300 300 301 302 303 302 303 303 301 302 303 301 301 302 302 300 298 299 301 301 301 303 302 298 301 302 298 300 302 301 302 304 305 307 306 307 307 304 304 305 304 305 309 313 309 310 314 311 315 317 308 306 309 313 314 312 307
294 294 294 294 294 294 294 293 292 292 292 291 293 297 300 301 303 305 306 307 305 308 308 307 306 303 302 304 303 302 301 300 300 302 303 303 303 304 303 302 303 303 303 303 302 301 300 300 301 302 301 301 302 301 298 299 299 300 307 307 304 306 306 307 307 304 306 307 301 299 301 302 304 310 314 310 310 309 306 313 319 310 309 312 312 314 314 309
293 294 294 294 293 293 293 293 292 292 291 292 294 296 300 303 303 305 307 306 305 308 309 308 304 302 302 304 303 301 302 302 301 303 304 303 303 303 303 303 304 304 305 304 303 303 302 302 304 302 301 301 302 302 300 298 298 302 309 306 305 308 304 304 308 305 306 302 297 297 300 300 302 306 307 305 306 307 303 306 314 312 311 312 312 313 311 308
293 293 293 292 292 291 292 291 291 291 291 293 295 296 299 303 304 304 305 305 305 307 307 306 303 302 302 304 302 300 302 302 301 302 304 303 303 303 303 303 303 305 307 304 303 305 304 302 302 302 302 301 301 302 301 300 299 302 304 304 304 305 303 305 306 303 305 302 296 296 300 301 304 306 305 304 303 304 303 302 306 310 312 313 312 309 309 310
293 293 292 291 291 290 290 290 290 291 292 294 295 295 297 301 303 303 305 305 305 306 305 304 303 303 303 304 303 301 302 303 301 303 304 303 304 304 303 304 302 303 307 306 303 304 305 305 303 302 303 302 300 301 301 301 300 300 303 305 304 305 307 309 307 306 309 305 297 296 301 307 312 310 306 304 303 303 303 303 304 304 305 305 304 303 306 310
292 292 291 291 290 290 289 290 290 291 293 294 294 294 295 298 301 304 305 304 306 309 305 302 302 304 304 304 302 301 303 304 302 303 304 304 305 304 303 303 302 302 305 306 305 304 305 307 305 302 302 301 300 301 301 301 301 301 303 305 303 306 309 306 304 305 306 305 301 300 303 307 310 307 303 302 303 303 302 301 303 303 302 300 301 303 304 306
292 291 291 291 290 290 289 290 290 291 293 293 293 293 294 296 299 303 305 304 305 308 305 302 303 305 305 305 302 301 303 304 303 303 304 304 305 304 304 303 302 302 303 304 305 305 305 306 302 300 302 301 300 302 301 302 304 301 302 304 301 304 310 306 300 300 301 303 304 304 305 306 305 304 304 303 305 306 303 302 302 303 301 300 302 302 301 304
291 291 291 290 290 290 290 290 291 292 293 292 292 293 294 295 297 299 301 302 302 304 305 305 305 305 305 306 304 302 302 303 303 303 304 305 305 304 304 303 303 302 302 302 305 306 307 306 300 299 301 300 300 303 303 303 305 302 302 303 300 302 310 309 304 304 304 304 305 306 305 305 306 307 308 306 306 306 304 304 303 302 301 302 301 300 300 303
291 291 291 291 290 290 292 292 292 292 292 291 292 293 293 294 295 296 298 298 299 301 302 304 305 306 306 306 305 303 303 304 304 304 304 305 305 305 304 303 304 303 302 302 304 305 306 306 302 298 300 300 300 302 303 303 302 301 302 303 302 304 307 305 304 306 306 305 309 309 304 303 305 305 308 308 309 311 307 304 304 303 303 303 300 299 300 300
290 290 290 291 290 290 291 292 292 292 291 290 291 292 292 293 294 295 295 296 297 299 300 302 304 305 305 305 306 304 303 305 306 305 305 306 306 306 305 304 304 303 302 302 303 304 305 307 305 298 297 301 301 302 303 303 301 302 302 301 303 306 306 304 304 306 306 306 309 309 306 308 306 303 306 307 308 313 312 309 311 308 302 299 300 300 300 300
289 290 290 290 289 290 291 291 292 291 290 290 291 291 292 292 292 293 294 294 296 297 298 299 301 303 304 305 305 304 303 304 306 305 305 306 307 307 305 304 304 303 303 302 302 303 304 306 307 300 297 300 302 302 303 303 301 302 302 301 302 303 304 305 304 305 307 308 310 309 307 311 311 304 305 305 305 307 310 311 316 315 306 299 299 302 302 302
289 289 290 289 289 291 291 290 290 290 290 290 290 291 291 291 292 292 293 293 293 294 296 297 297 299 301 303 303 304 303 303 305 305 305 305 306 307 305 304 304 303 302 302 303 303 303 305 306 301 299 301 302 301 303 303 301 302 302 302 302 302 303 304 304 304 304 305 310 309 305 308 313 307 303 305 305 305 307 310 315 320 314 303 299 301 302 303
289 289 289 289 290 290 290 289 289 290 290 290 290 290 290 291 292 291 291 291 291 291 293 294 296 297 299 301 302 303 303 303 303 304 305 305 305 306 305 304 303 303 302 303 302 303 304 306 306 302 301 302 301 301 302 302 301 302 302 302 302 302 302 303 304 304 303 303 306 306 304 305 309 308 305 304 304 304 305 308 314 319 314 304 299 299 299 302
289 289 289 289 290 290 289 288 289 289 289 289 289 289 289 290 290 290 290 290 290 290 291 292 295 296 297 299 299 299 300 302 304 304 304 304 304 305 305 304 303 303 303 303 303 303 305 306 306 304 303 302 301 301 302 301 301 302 302 301 302 302 302 303 305 304 303 303 303 303 303 303 306 310 308 303 302 303 302 303 309 315 311 302 299 299 300 302
289 289 289 289 289 289 289 288 288 288 288 288 288 288 288 288 289 289 289 289 289 290 290 291 293 293 294 295 294 293 295 298 302 304 304 304 304 305 304 302 302 303 303 304 304 304 304 304 305 306 305 304 303 302 302 301 301 302 302 301 301 301 301 302 304 303 303 304 304 303 304 304 305 308 305 302 302 304 305 303 304 309 310 305 302 301 301 302
288 288 289 289 289 289 289 288 288 287 287 287 287 287 287 287 289 289 289 289 290 290 290 290 291 292 292 292 292 293 294 296 299 303 304 304 304 305 302 301 302 303 303 305 305 304 304 305 305 306 306 306 305 305 304 303 301 302 302 302 301 301 301 301 303 303 303 304 304 303 304 304 304 304 302 303 304 305 307 306 302 304 305 304 304 304 302 303
287 288 288 289 288 288 289 289 288 288 287 287 287 287 287 287 288 289 290 290 290 290 290 290 291 291 291 292 293 294 295 296 298 300 303 303 304 304 301 300 302 303 304 306 306 305 305 306 305 305 306 307 306 306 306 304 302 302 302 301 301 301 300 301 302 302 303 303 303 303 303 303 304 304 303 305 306 306 308 307 304 305 305 303 304 303 301 301
287 288 288 289 288 287 288 289 288 288 288 288 288 287 288 287 287 288 289 290 291 291 291 291 292 293 293 293 294 294 294 295 295 296 298 301 302 301 298 298 301 303 304 306 305 304 306 306 306 306 306 307 307 307 306 304 304 303 302 302 301 300 300 301 302 302 303 304 304 303 303 303 302 303 305 307 308 307 308 308 307 307 307 304 302 301 301 302
287 288 288 288 287 287 287 287 288 288 288 288 288 288 288 288 288 288 289 290 290 291 291 291 292 292 292 292 293 293 292 292 293 293 295 296 296 295 293 295 299 302 303 305 305 304 305 306 306 306 306 306 306 307 305 304 304 303 302 302 301 301 301 301 302 302 302 303 303 303 303 303 302 302 303 306 308 308 308 308 305 302 303 305 303 304 307 307
287 288 288 287 287 288 288 287 287 288 287 287 288 288 287 288 287 288 288 289 289 289 289 290 290 290 291 291 291 291 291 291 292 293 293 293 292 292 292 293 296 299 299 301 304 305 305 305 306 306 306 306 306 306 304 304 304 304 303 302 302 301 301 301 301 301 302 302 303 303 302 303 303 302 302 303 306 308 307 305 302 301 305 309 307 307 309 310
287 288 287 286 287 287 287 287 287 287 287 287 287 287 287 287 287 287 287 288 288 288 288 289 289 290 290 290 290 291 291 292 292 293 293 292 291 291 291 293 295 295 294 295 299 303 304 305 306 306 306 306 305 305 304 304 304 304 303 302 302 301 301 301 301 301 302 302 302 302 303 302 302 303 302 302 304 305 304 303 303 305 307 308 307 306 307 309
288 288 287 286 286 287 287 287 287 287 287 287 287 287 287 287 287 287 287 287 288 288 288 288 289 289 289 289 290 291 291 292 292 292 292 291 291 291 291 292 293 292 293 293 296 300 304 305 306 306 306 306 306 306 305 304 304 305 304 303 302 302 301 301 301 301 302 302 302 302 302 302 302 302 302 303 304 304 303 303 304 304 304 304 304 304 304 307
287 287 287 286 287 287 287 287 287 287 287 287 287 287 287 287 287 287 287 287 287 288 288 288 288 288 288 289 290 290 291 292 292 292 291 290 290 291 291 292 292 292 293 293 294 297 301 304 305 306 306 306 306 306 305 306 306 306 306 303 302 301 301 301 301 301 302 302 302 303 303 302 303 304 303 303 303 303 303 303 304 303 303 302 301 301 302 304
Wind_Speed
13 11 10 11 14 14 14 14 13 13 13 14 14 15 14 14 14 14 15 15 15 15 15 17 17 17 18 18 19 19 22 22 20 15 9 9 8 8 8 6 6 6 4 3 2 6 3 1 1 2 4 3 3 1 1 2 2 2 3 3 3 4 5 6 7 7 4 2 3 2 1 2 4 4 3 2 1 3 5 5 5 6 8 12 16 17 18 20
15 14 11 11 13 13 13 14 14 14 13 14 15 15 14 14 14 14 14 15 15 15 15 16 17 17 18 19 19 20 23 22 19 15 14 12 9 8 7 7 7 5 4 1 2 7 6 2 1 3 3 2 2 1 1 1 2 3 4 2 5 6 5 6 7 5 4 3 3 3 1 2 4 3 3 4 5 3 6 8 4 8 12 14 20 23 23 17
15 15 13 11 12 13 13 14 15 14 13 15 15 15 15 14 14 13 14 15 14 15 15 15 16 17 18 18 18 20 22 19 11 9 8 9 13 10 7 7 7 4 4 2 3 5 6 5 3 3 4 2 1 1 2 1 1 2 4 3 7 6 4 4 6 6 5 3 2 3 2 0 5 2 1 3 8 7 9 9 5 8 10 10 12 14 14 11
15 15 14 12 12 13 13 13 15 14 14 15 16 15 14 14 14 13 14 14 14 14 14 15 16 16 17 18 18 20 17 10 4 3 3 6 12 11 7 7 6 5 4 3 4 4 6 6 4 4 3 2 3 2 2 2 1 2 4 5 6 4 3 6 7 6 4 3 3 1 3 4 5 1 1 2 7 11 10 10 11 11 10 9 8 8 9 9
15 15 14 14 13 13 13 13 14 14 14 15 16 15 14 15 14 14 14 13 14 13 13 14 14 15 16 17 18 18 10 3 2 1 5 8 8 9 8 7 6 5 4 4 4 5 6 5 5 4 3 1 1 2 2 3 2 2 3 5 4 4 2 5 5 4 3 3 2 2 1 5 2 1 4 5 7 10 4 6 11 11 9 8 6 6 7 8
16 15 14 15 14 13 13 13 14 13 13 15 15 15 14 15 15 15 14 13 13 13 13 13 14 14 14 16 17 11 2 2 2 3 7 8 7 8 8 7 6 4 4 4 5 5 5 5 4 3 2 1 3 3 3 2 3 2 3 2 3 4 3 2 3 3 3 4 3 3 3 1 2 6 6 9 15 15 6 5 8 8 8 7 5 5 6 8
16 15 15 15 15 14 13 13 14 13 13 14 15 14 14 15 16 15 15 15 13 13 13 13 13 13 14 16 11 3 1 4 2 6 8 8 6 6 7 7 5 4 4 5 5 5 5 5 2 4 4 2 3 4 2 1 3 2 4 3 3 4 5 3 3 3 4 4 6 2 3 2 3 6 2 9 19 17 12 10 9 9 8 7 7 7 8 9
16 15 16 15 15 14 14 14 14 13 13 13 14 14 15 16 16 16 15 15 14 13 13 13 13 12 14 13 5 1 2 5 1 7 8 7 6 6 7 7 5 4 4 4 5 5 4 5 4 3 3 2 4 3 2 3 2 3 6 3 1 3 6 4 1 4 4 5 5 2 6 7 9 3 6 17 20 13 11 9 10 10 8 7 9 10 9 9
17 16 16 16 15 15 14 15 15 14 13 13 14 14 15 16 16 16 15 15 15 14 13 13 12 12 14 9 2 1 4 3 3 7 7 5 5 6 6 6 5 4 5 4 4 7 5 5 5 3 3 3 4 4 3 3 2 6 6 2 2 3 5 4 4 6 5 5 4 4 9 8 6 2 8 21 20 11 6 6 8 7 8 8 8 9 7 8
21 19 17 17 17 16 15 15 15 15 14 13 14 14 15 15 15 16 15 15 15 14 14 13 12 12 12 7 3 2 2 2 5 6 5 4 5 5 5 5 5 4 5 4 5 7 5 5 5 4 4 2 4 3 3 5 3 3 4 3 5 4 5 2 4 5 2 3 5 6 11 7 2 1 8 11 6 3 1 2 5 3 7 8 7 8 6 7
21 21 20 19 18 16 15 16 16 14 15 14 13 14 14 15 15 15 15 15 15 14 13 12 11 12 9 4 3 3 0 5 4 4 3 4 4 4 4 4 4 5 6 4 4 5 3 7 8 5 1 2 4 2 2 5 2 2 2 4 6 5 6 4 5 6 1 3 6 8 8 7 2 3 14 11 1 5 4 6 6 4 7 7 7 8 5 6
19 19 21 21 20 19 17 17 16 15 15 14 14 14 14 14 14 15 14 14 14 13 13 11 10 11 8 2 5 8 3 2 2 2 2 3 4 3 3 4 3 5 6 4 4 3 3 8 9 5 2 3 5 2 3 3 3 1 2 3 7 7 6 6 4 4 4 2 5 7 6 7 6 11 19 13 2 5 6 8 7 6 8 7 7 7 6 7
24 21 19 19 21 22 21 19 18 16 16 15 15 14 14 15 14 14 14 14 14 13 13 10 9 10 5 3 8 9 7 5 3 3 3 3 4 3 2 3 3 4 5 4 5 5 5 7 7 5 2 4 3 2 2 3 2 1 2 1 5 7 6 4 0 1 4 3 5 5 6 9 9 13 17 8 2 4 6 8 7 6 7 6 7 6 8 8
28 27 23 19 19 21 21 21 20 18 17 16 15 15 15 14 14 14 13 14 13 12 11 8 9 9 3 6 11 11 13 14 12 9 6 5 5 5 4 3 3 5 4 4 6 5 4 5 5 4 2 3 2 1 4 5 2 1 1 1 1 1 5 5 0 4 5 2 3 5 6 11 7 10 13 4 1 1 6 9 7 7 7 7 7 7 9 10
30 29 28 24 22 20 19 20 21 20 19 18 16 15 15 14 15 15 14 14 13 11 9 8 9 6 3 9 14 13 12 14 17 15 9 8 7 5 4 6 6 6 6 6 6 5 5 6 5 4 1 1 2 3 3 4 3 2 2 2 1 3 5 7 2 5 4 1 1 5 5 10 8 9 9 2 4 4 5 9 8 7 8 8 9 8 10 11
31 30 29 27 25 24 22 19 20 21 20 19 17 16 17 16 15 14 14 15 12 9 7 7 6 2 3 6 5 5 6 7 11 13 11 10 9 5 7 8 7 7 7 6 6 6 5 5 3 2 2 2 4 4 2 3 3 2 2 4 3 4 3 6 2 3 2 1 1 4 6 6 5 6 5 3 4 4 4 10 11 11 10 11 11 9 10 10
30 30 30 30 28 26 25 23 20 20 21 20 18 17 17 16 15 15 15 13 11 8 5 5 4 2 4 4 2 4 4 6 6 11 15 11 8 8 10 7 5 6 7 6 5 3 3 4 1 1 2 2 3 5 3 4 6 2 2 4 4 4 3 3 3 2 1 2 3 5 7 9 9 10 7 2 1 4 7 13 17 15 12 11 10 10 10 10
28 29 30 31 30 28 27 26 24 21 20 21 19 16 16 17 18 17 10 7 5 4 4 5 4 2 4 4 4 3 2 5 7 12 16 12 9 11 9 5 4 6 6 4 2 2 2 3 2 1 2 2 3 6 6 6 6 6 5 4 3 3 5 4 4 2 2 1 4 4 9 13 12 15 14 8 5 6 11 14 17 16 14 12 10 11 11 10
28 28 29 31 31 30 29 28 27 25 20 19 18 15 15 15 14 9 3 4 2 1 2 3 4 2 2 3 3 1 1 5 8 11 14 12 11 10 7 5 5 6 4 1 1 1 1 3 3 1 5 6 6 9 10 3 4 8 7 5 5 5 4 5 4 3 1 1 6 7 12 15 12 15 18 11 7 8 12 13 14 14 14 13 11 11 10 10
28 28 28 29 30 31 31 30 29 26 23 20 16 10 8 6 4 1 3 5 6 6 3 5 8 4 2 2 1 1 3 6 5 7 13 14 13 10 4 3 5 4 3 4 2 1 3 2 5 7 6 8 10 12 7 2 4 4 3 3 5 5 4 4 2 5 2 1 7 7 11 17 13 14 20 15 7 8 12 14 15 15 14 13 12 12 11 11
28 27 28 29 29 31 31 32 31 28 28 22 12 4 0 1 1 2 1 5 11 13 9 9 13 9 6 3 2 3 3 2 1 4 14 15 14 10 1 2 5 1 3 4 2 1 4 5 10 7 7 9 12 10 5 2 1 4 2 2 3 5 5 4 1 4 3 1 5 4 10 18 13 12 19 16 13 14 14 15 17 17 16 13 11 13 12 9
27 27 28 29 29 31 31 33 32 27 26 16 8 4 2 4 5 5 2 4 10 15 16 13 12 12 12 11 8 4 1 3 4 4 12 13 10 7 2 3 6 4 3 3 2 2 1 9 9 6 7 7 7 7 6 5 4 1 1 1 4 4 4 4 3 4 2 1 4 6 10 18 14 12 18 19 18 16 13 13 15 16 16 13 11 12 10 8
27 27 29 28 29 31 31 33 28 22 21 11 10 6 3 6 6 5 1 4 8 9 12 13 12 12 13 14 13 10 4 5 6 6 13 13 6 6 5 5 6 5 4 6 6 5 4 8 6 7 8 8 5 4 7 5 4 4 3 3 5 2 1 3 4 3 2 0 3 5 9 16 14 11 16 19 16 12 8 10 12 12 14 15 11 9 8 8
27 27 28 28 29 29 32 32 19 17 24 14 13 10 4 2 2 1 0 3 6 5 7 13 11 10 12 11 13 17 9 5 5 6 16 16 6 4 5 6 6 5 6 8 9 8 7 4 1 6 8 9 7 4 7 6 4 4 5 7 5 2 3 4 3 3 3 2 2 4 8 13 8 7 11 10 6 7 6 6 9 10 11 12 10 9 9 9
25 26 27 28 27 29 33 24 12 21 27 14 10 11 9 5 1 1 2 3 5 4 4 8 7 8 13 9 12 15 6 6 6 6 16 18 9 5 3 3 4 6 7 7 7 8 10 5 4 7 6 7 7 5 7 8 4 3 6 10 8 5 5 2 2 3 4 4 3 4 4 9 4 3 9 7 6 9 5 4 10 11 9 9 9 10 10 9
24 23 25 27 26 29 27 12 14 28 19 8 13 18 14 11 7 4 2 3 6 2 1 4 4 7 10 8 8 9 4 5 6 10 17 18 11 5 3 2 1 4 7 6 4 5 6 4 6 7 6 7 7 6 7 8 4 2 4 7 8 6 6 4 2 2 1 5 3 3 1 7 7 4 8 9 11 15 11 10 13 12 8 8 10 10 9 8
24 22 23 24 24 27 19 8 19 23 8 9 25 26 17 12 11 7 3 3 6 3 5 2 2 6 6 8 9 8 3 2 3 8 13 17 11 2 3 6 2 3 4 4 3 3 2 5 6 7 6 6 7 6 7 9 6 3 3 3 8 8 7 6 5 3 2 3 3 2 4 4 10 7 6 6 10 14 14 14 13 11 9 9 9 9 8 9
24 23 23 22 22 23 16 13 18 14 8 18 29 25 16 11 10 6 2 3 4 2 5 1 1 4 4 8 10 5 1 2 4 3 3 11 10 2 3 8 5 7 6 6 6 3 3 7 9 10 7 6 6 5 11 13 6 3 1 4 7 7 6 5 5 3 1 3 4 2 5 2 10 8 2 1 7 12 14 15 15 12 9 8 8 9 8 8
24 23 23 22 22 21 17 17 15 12 16 22 27 23 10 9 7 3 3 4 1 1 4 3 3 2 4 7 5 2 2 3 2 1 2 6 5 3 4 6 6 9 7 6 7 1 2 5 8 8 7 7 3 4 11 14 6 2 5 9 8 7 6 6 4 3 3 3 4 6 7 3 9 9 2 1 5 11 12 12 12 11 7 7 7 7 7 5
23 22 23 22 21 19 19 21 18 15 19 21 25 18 6 11 4 3 7 5 1 1 2 3 2 4 7 8 3 1 2 3 1 2 2 2 1 4 2 2 6 6 3 5 7 3 1 1 2 3 4 5 4 4 2 7 9 8 7 8 8 6 5 5 2 4 4 4 5 8 11 6 6 8 4 4 5 6 7 7 8 8 6 7 6 6 6 5
22 22 22 20 18 17 14 17 21 20 21 22 23 14 5 5 2 5 7 2 2 2 2 1 2 8 11 9 3 2 3 2 1 4 3 3 2 2 2 2 3 3 0 5 7 3 1 1 1 1 1 5 6 5 5 3 9 7 5 5 5 3 4 4 4 4 2 7 5 2 5 6 5 8 3 4 7 4 5 6 7 7 6 6 6 5 4 3
22 21 21 19 18 18 13 16 23 24 21 19 16 8 3 4 4 6 4 3 1 3 4 2 3 7 10 6 3 4 4 1 3 6 5 5 5 7 6 6 5 3 3 8 5 1 2 5 4 1 1 5 6 5 5 2 3 3 5 7 5 2 2 1 3 1 3 6 2 1 1 2 9 12 7 11 14 10 9 8 8 6 6 6 5 4 3 1
22 21 21 21 21 22 22 22 23 21 19 15 8 3 4 6 5 6 6 4 3 1 3 2 2 4 7 4 1 4 3 1 5 5 4 5 6 8 8 7 5 2 2 6 4 0 2 3 4 4 2 4 9 8 4 3 4 4 7 7 5 4 2 4 4 2 4 5 1 2 2 2 7 9 10 16 19 14 9 8 9 7 6 7 5 4 4 3
22 21 22 23 23 23 24 23 19 16 14 9 3 3 7 7 5 10 14 12 6 2 4 2 4 5 6 3 2 5 3 2 6 5 3 6 5 6 7 9 9 2 3 3 4 6 6 6 7 11 5 7 12 10 7 8 7 7 6 5 5 6 5 6 5 3 4 2 2 2 3 4 5 4 7 12 12 11 7 6 8 7 7 6 5 5 5 4
23 23 23 22 22 23 23 21 17 12 7 3 2 4 7 6 5 9 11 10 5 3 4 1 5 6 6 3 1 4 3 2 7 7 4 6 7 6 6 9 12 6 3 4 3 4 8 7 5 6 3 12 16 8 7 10 6 4 2 3 4 5 5 4 4 5 4 1 2 2 4 6 5 7 11 9 8 8 8 6 6 7 7 5 6 7 6 5
23 23 20 18 22 25 23 21 16 8 2 1 3 5 6 6 6 5 5 5 4 1 2 1 3 4 5 3 2 5 3 2 7 7 4 6 7 7 7 8 12 11 8 8 2 2 6 4 2 1 2 10 11 7 8 7 4 3 3 5 5 2 7 5 2 1 4 2 4 3 6 6 4 9 13 12 12 10 8 7 7 8 6 5 8 9 8 7
21 18 14 17 24 22 17 15 10 5 3 2 5 7 6 6 6 6 7 6 5 3 1 6 5 6 5 3 3 6 3 2 6 7 4 6 6 9 12 8 9 15 15 10 3 1 4 2 2 2 3 3 1 3 4 2 3 6 5 6 3 2 3 4 2 2 3 4 4 3 9 7 2 6 6 4 10 13 11 8 6 6 6 7 9 9 9 9
18 13 10 16 19 12 9 7 1 5 2 2 8 11 8 7 9 10 11 11 10 8 5 8 5 7 8 7 5 9 9 5 7 7 5 6 5 9 15 9 8 18 20 12 4 2 3 2 2 0 1 0 2 2 2 2 1 2 4 5 4 2 2 2 3 3 2 5 4 3 6 6 7 8 4 3 8 11 11 7 7 9 9 9 9 9 9 8
13 7 5 9 10 9 9 4 5 5 1 3 8 9 7 8 10 11 11 11 10 9 7 7 5 4 6 7 6 10 12 10 10 8 6 6 5 8 15 11 9 17 19 14 8 3 1 3 3 1 1 1 2 4 8 6 2 2 1 3 1 1 4 3 4 3 3 5 4 4 2 4 8 7 7 10 11 9 9 6 8 11 10 10 9 8 9 8
6 1 4 9 10 9 6 3 5 3 2 5 6 6 6 7 9 12 11 9 8 6 5 7 8 6 5 5 4 6 10 12 11 8 6 7 6 6 12 12 8 10 15 17 12 4 2 4 4 1 1 2 2 7 10 10 8 4 4 6 4 1 2 1 1 2 4 4 4 4 5 7 6 4 9 13 13 12 10 7 7 9 8 9 9 8 8 8
1 1 4 10 11 8 1 4 2 2 3 5 6 6 7 7 8 13 14 10 8 6 5 9 11 10 8 8 6 3 6 9 10 9 6 7 7 6 8 13 11 8 10 11 11 8 4 5 4 3 2 4 3 3 3 6 11 10 8 9 10 7 4 3 4 2 3 3 5 4 7 9 5 4 8 10 10 9 7 6 7 7 7 8 8 7 7 7
1 3 4 6 6 4 0 2 2 2 3 4 5 6 8 7 6 10 12 12 9 7 6 8 10 11 11 10 9 6 4 6 10 10 7 10 13 10 8 12 13 13 13 10 13 13 6 1 3 4 4 4 1 1 1 2 7 7 5 6 8 7 7 7 6 4 2 2 2 2 5 7 2 5 7 7 6 3 2 6 6 6 6 6 5 4 5 6
2 5 10 14 13 6 0 2 5 3 4 5 4 6 8 6 6 7 10 11 9 6 6 7 7 8 9 8 7 8 8 6 10 11 10 12 15 14 11 14 15 15 11 7 8 10 4 2 4 4 0 1 2 2 2 2 2 4 8 8 7 8 10 6 2 2 3 4 4 3 6 6 2 2 4 4 3 2 3 6 7 7 5 4 4 4 5 6
3 3 8 15 15 10 3 3 5 5 6 5 5 7 7 6 7 9 10 10 7 5 6 7 7 7 8 8 8 9 10 7 7 10 11 10 9 9 11 16 18 15 11 8 9 9 6 5 6 4 1 0 0 1 1 1 5 6 7 8 8 9 9 3 1 1 1 6 8 6 9 8 4 3 1 2 3 4 6 6 6 6 5 4 5 5 5 6
3 3 3 6 7 8 4 4 5 5 6 6 6 8 7 5 6 9 11 11 8 7 9 9 8 9 10 11 11 11 11 8 7 8 8 7 5 3 7 15 17 14 12 14 14 11 7 7 8 7 6 6 5 5 5 5 6 3 3 9 12 13 12 8 4 4 5 8 9 8 11 8 4 4 3 3 4 5 8 6 5 6 6 5 5 5 5 6
1 2 1 2 1 4 4 4 5 5 5 6 6 6 7 6 6 6 9 10 9 8 9 9 9 11 11 11 12 12 11 10 9 8 7 8 6 3 5 15 17 14 14 15 13 9 4 6 11 13 12 11 10 7 5 9 8 8 12 16 15 15 15 11 7 7 11 11 8 11 14 12 12 8 3 5 6 6 7 6 4 6 6 6 6 5 5 5
1 2 2 1 2 2 2 3 5 5 6 6 5 3 6 8 7 5 5 6 7 6 5 6 8 8 8 9 9 8 8 10 10 11 12 10 7 6 7 8 14 19 20 16 13 8 3 6 12 16 18 18 16 12 9 13 13 15 19 19 16 16 17 15 12 14 15 11 11 16 16 16 21 15 6 5 7 6 8 8 6 6 5 5 5 4 5 6
2 2 3 3 2 2 2 3 5 7 9 9 6 4 8 10 9 7 4 4 6 5 3 4 7 9 9 9 8 7 8 10 10 8 8 7 7 9 11 10 9 14 16 14 12 9 5 9 13 15 18 19 19 16 11 12 13 15 18 20 20 19 20 20 20 21 17 11 14 22 22 20 22 16 9 9 7 6 9 8 5 3 3 4 5 5 7 7
2 2 2 2 3 4 6 7 6 7 10 10 6 6 9 11 11 10 6 4 6 7 6 7 11 12 11 9 6 7 7 8 9 7 5 7 7 6 7 9 7 7 7 7 8 7 6 10 14 16 17 19 21 17 11 12 12 13 15 19 21 22 23 23 22 24 23 19 21 27 28 23 17 13 11 10 8 8 7 3 3 4 5 5 6 7 8 7
2 2 2 1 3 5 6 7 8 7 9 9 7 7 8 11 13 11 8 7 8 8 7 9 12 12 11 11 9 9 8 8 11 11 7 8 7 4 3 4 4 9 11 9 8 8 8 10 14 15 13 16 20 17 13 14 14 14 14 15 18 20 21 22 21 22 22 22 25 28 27 22 15 12 12 8 8 9 8 4 4 6 7 7 7 8 8 7
9 10 7 2 2 6 6 6 7 7 7 7 8 8 9 13 15 13 9 10 11 10 9 10 12 11 11 13 13 12 11 10 12 12 8 5 6 6 5 4 6 11 11 9 8 9 9 10 11 12 11 12 15 17 18 17 17 18 18 14 14 16 17 19 21 22 20 20 22 22 20 18 12 10 10 8 8 10 11 9 8 8 9 10 10 10 9 9
10 11 8 3 3 7 8 6 7 7 6 7 10 11 12 13 13 11 8 7 10 13 14 14 14 11 10 14 14 12 11 10 9 9 7 6 9 10 8 10 12 10 9 9 9 8 9 9 9 10 10 10 14 16 16 15 14 15 14 15 16 17 19 19 19 22 21 18 16 15 17 16 7 5 8 8 8 10 10 9 9 12 13 13 12 11 10 10
Wind_Direction
323 325 328 331 332 331 328 326 325 327 331 329 329 328 329 329 328 327 326 329 330 327 326 328 329 329 329 328 328 327 319 316 316 308 276 249 244 234 240 245 249 257 243 267 243 181 156 81 152 135 131 76 17 339 50 27 72 91 110 140 208 191 197 191 184 195 185 230 246 269 107 172 283 299 306 310 226 251 273 263 254 272 260 251 258 266 280 289
323 324 324 326 328 328 326 326 326 326 329 329 327 325 325 327 326 327 324 327 329 326 326 326 327 327 328 328 329 325 318 318 313 292 270 250 237 232 234 237 243 245 229 231 184 173 154 155 186 92 83 66 349 6 66 20 86 119 126 167 224 196 207 198 178 194 190 206 231 263 248 181 247 277 359 306 279 301 291 273 238 262 267 265 268 267 272 277
322 324 320 319 322 323 322 325 325 323 327 329 325 323 323 322 325 327 323 324 326 324 324 325 326 325 327 329 328 323 319 323 311 284 283 234 214 222 223 223 230 222 209 172 146 158 154 158 146 100 71 68 341 42 85 63 147 161 127 197 239 205 223 232 190 202 207 182 196 284 341 131 253 258 41 286 290 279 255 256 222 238 256 257 262 261 265 266
321 322 318 315 316 318 319 323 323 319 325 328 324 323 321 322 325 325 323 322 323 324 321 324 327 324 325 327 325 320 321 329 301 290 41 152 189 208 209 213 212 189 184 160 140 129 129 127 99 82 83 70 330 18 137 231 203 163 148 199 232 178 223 243 198 200 208 161 160 200 14 311 268 222 220 275 305 279 241 234 224 225 232 232 251 263 261 262
317 318 318 314 311 314 316 320 321 317 320 325 325 323 322 324 325 325 324 319 321 324 321 321 324 325 324 324 323 318 321 331 300 356 103 125 166 192 191 201 196 178 171 156 141 115 111 103 73 66 75 104 337 32 207 238 130 162 214 196 194 146 217 245 188 184 161 124 138 127 310 278 274 238 226 203 244 255 220 201 214 219 225 223 236 252 256 259
311 312 315 312 312 311 310 315 317 316 316 322 326 324 323 323 323 323 321 321 322 320 320 321 323 326 323 322 318 311 277 226 334 93 135 132 146 172 178 193 180 168 176 160 134 108 96 71 67 123 91 91 185 190 220 276 95 178 255 240 208 175 215 241 150 188 135 116 177 172 246 266 2 289 229 201 230 242 247 232 221 224 233 247 259 243 253 262
306 307 308 309 311 310 309 310 312 312 313 319 324 325 324 323 323 320 317 321 325 321 319 321 326 327 324 325 320 317 164 266 325 113 140 143 159 173 179 191 175 181 184 150 120 101 92 86 120 158 103 72 205 211 207 22 52 163 243 273 233 193 219 221 134 177 142 167 216 202 312 275 239 278 278 235 243 246 260 271 264 258 251 262 272 257 258 263
300 300 303 306 306 306 308 308 308 307 308 312 318 323 323 323 323 320 318 319 324 326 318 320 331 329 329 334 337 8 291 264 172 138 154 156 175 178 182 187 181 197 169 150 143 133 121 130 171 153 120 211 188 178 155 88 36 215 226 246 190 199 238 243 205 224 213 226 229 224 273 244 218 256 304 263 259 258 258 271 273 272 274 261 257 260 261 264
294 295 297 299 300 302 305 305 306 304 305 306 310 319 322 323 325 322 319 318 322 325 320 323 328 327 335 348 61 337 280 230 167 168 171 170 183 179 186 187 188 198 152 144 155 150 155 173 193 170 164 206 164 161 168 148 242 223 201 214 222 252 269 262 252 243 233 231 176 199 257 253 225 263 278 259 263 274 247 254 276 280 277 263 257 258 250 256
291 293 293 292 293 298 301 302 303 302 305 304 304 313 320 322 325 324 320 317 321 322 321 325 325 329 341 4 74 260 278 124 162 181 179 188 195 187 188 188 194 192 152 131 145 151 166 190 179 148 140 161 161 154 168 174 207 193 164 227 244 264 284 260 257 261 251 246 180 202 265 271 218 239 258 250 257 324 83 262 295 292 264 262 264 263 246 245
298 292 291 291 290 292 294 297 300 299 302 303 303 307 315 319 323 325 322 318 319 319 322 325 326 326 329 19 106 217 309 91 145 177 193 206 198 191 188 197 206 192 167 127 149 164 176 184 155 124 141 178 161 127 222 200 144 116 131 280 278 303 292 235 256 270 219 263 192 182 266 281 99 207 241 245 66 35 353 299 300 277 265 269 267 273 266 250
327 307 294 290 290 290 290 291 293 294 298 301 300 301 307 313 318 322 321 320 318 316 319 323 322 317 319 308 223 234 245 101 133 160 202 215 190 178 179 203 212 199 191 151 155 158 144 170 149 138 229 162 148 149 220 198 91 136 84 309 298 340 311 236 244 255 167 211 178 154 282 266 198 223 242 251 323 3 315 284 289 278 270 275 271 279 276 267
351 340 319 300 293 291 289 289 288 287 291 295 297 297 300 305 311 317 319 320 318 315 315 314 306 305 320 280 246 249 264 261 268 264 232 226 189 165 155 188 185 184 203 176 151 128 132 167 145 148 169 110 154 184 112 65 51 265 71 31 308 349 315 258 121 133 155 190 173 146 285 255 212 233 249 263 343 343 302 272 277 282 279 280 280 285 280 276
353 352 347 334 315 300 292 289 288 287 286 288 293 294 295 300 304 308 311 312 315 314 308 306 302 298 289 255 265 279 279 268 264 253 224 208 180 145 132 137 142 161 169 149 139 115 127 156 122 117 115 94 169 132 46 15 14 322 13 39 343 325 282 288 235 150 151 204 167 143 256 261 256 257 256 270 55 267 278 277 279 281 284 284 281 280 280 278
349 348 349 349 343 330 310 292 284 283 286 286 288 290 292 294 297 301 303 305 311 307 298 300 302 301 299 277 274 281 274 257 251 238 211 197 183 144 133 135 122 126 125 127 129 105 109 132 112 108 128 12 92 102 33 345 12 32 252 280 301 203 267 303 264 170 162 282 156 153 239 273 280 275 277 316 115 144 264 282 281 271 276 277 277 275 275 278
347 344 344 345 347 345 334 314 292 281 282 285 284 286 289 290 292 295 296 301 303 291 282 293 296 273 280 289 283 280 251 233 239 224 200 195 194 160 138 133 110 109 114 108 110 106 93 85 83 122 130 65 91 108 62 334 323 346 216 233 231 193 266 313 287 220 197 164 239 214 242 281 279 277 321 32 102 81 319 291 283 271 271 273 276 275 272 279
346 344 341 340 341 345 343 334 316 294 281 279 284 285 286 290 290 292 296 292 281 266 242 260 295 257 248 267 293 283 230 208 214 199 190 192 196 168 142 121 93 100 95 88 99 95 49 48 88 174 65 78 125 115 98 260 253 262 218 239 247 191 205 279 272 274 87 152 241 255 251 260 270 277 294 318 26 -0 306 283 281 277 273 270 271 274 271 274
342 342 341 338 335 338 340 339 334 317 291 278 279 282 283 291 292 293 291 262 253 264 249 259 285 268 250 254 259 270 196 198 190 179 182 180 180 170 148 116 111 108 79 57 61 61 19 26 79 41 22 152 152 149 182 228 214 193 204 221 247 222 211 242 253 263 58 146 246 272 266 262 268 275 273 253 238 270 266 266 274 277 276 273 268 270 271 270
339 338 340 339 334 331 332 336 337 329 312 286 271 275 288 293 292 288 232 185 155 176 234 220 196 192 269 260 248 291 81 162 168 169 173 167 163 155 127 106 107 104 98 81 38 128 120 51 69 188 221 193 177 190 201 205 154 184 197 183 197 219 230 235 246 275 22 244 251 242 258 266 266 274 278 267 224 229 250 258 265 272 274 273 269 265 266 267
338 337 336 337 336 332 328 330 332 330 328 305 270 267 300 298 297 295 182 197 211 210 202 185 197 227 298 306 318 164 139 148 160 172 172 167 155 135 92 85 78 70 134 148 168 180 108 143 218 215 193 173 192 207 199 121 92 131 143 153 197 218 253 249 255 307 332 235 258 238 254 270 269 272 277 276 251 229 244 256 261 264 265 266 266 265 262 259
337 336 336 334 336 336 331 327 324 326 330 312 265 219 309 209 259 312 224 225 228 224 238 221 208 231 245 227 187 153 136 157 272 186 175 170 153 143 144 130 115 136 191 147 157 53 91 205 230 207 163 169 197 210 198 212 34 68 126 206 246 226 242 259 249 312 329 223 279 301 281 273 267 266 273 278 269 250 240 246 256 259 261 262 259 261 262 262
336 335 336 334 334 336 333 328 322 325 330 306 235 180 201 210 239 280 282 271 247 221 233 238 222 240 245 239 229 189 80 219 238 218 179 167 159 170 177 134 152 185 175 136 130 74 172 234 228 173 154 157 177 196 196 230 260 279 159 222 271 235 230 292 341 337 339 206 289 338 304 281 272 259 264 267 263 258 243 236 248 258 263 261 251 254 259 265
337 335 335 335 335 333 333 330 324 334 340 299 216 192 234 230 240 274 275 288 277 221 218 227 223 233 235 242 228 200 213 208 200 217 181 164 169 183 158 150 166 159 165 182 172 152 206 248 230 165 152 145 145 173 178 204 245 221 176 212 253 223 165 280 308 317 341 165 286 323 298 283 275 252 255 260 261 273 265 240 243 249 256 258 253 251 246 244
335 335 334 335 336 334 333 330 326 347 349 313 236 221 243 253 216 253 245 273 272 239 216 213 212 221 219 224 200 188 210 209 180 203 182 168 154 158 163 158 157 168 195 194 185 198 218 248 186 139 147 157 154 155 166 183 234 224 206 221 232 152 188 247 284 300 346 13 329 334 299 284 272 237 252 266 287 294 262 235 250 241 240 254 260 251 237 233
332 332 333 335 336 335 333 332 344 352 345 326 267 256 257 256 231 12 334 294 261 263 253 215 204 220 209 187 169 171 187 222 215 191 178 173 155 140 173 161 160 187 187 171 185 235 240 225 106 112 140 165 163 178 182 177 206 253 227 219 210 173 179 206 16 10 2 323 315 18 313 283 292 251 264 289 316 292 263 248 266 251 227 232 246 244 233 232
331 330 332 333 334 338 340 342 352 345 339 335 329 318 286 251 243 278 320 304 264 246 180 207 179 190 186 153 151 144 125 234 214 167 170 176 168 134 149 159 124 180 161 152 184 252 242 183 112 124 157 171 185 220 199 165 162 259 248 209 196 169 148 145 115 69 309 263 277 63 137 276 298 270 263 284 288 285 288 281 273 266 245 225 232 238 228 228
330 330 331 330 332 341 346 334 335 340 342 336 337 332 308 261 234 250 284 286 267 172 135 216 158 154 156 149 157 145 153 280 121 154 169 173 179 91 142 174 128 171 157 130 214 263 152 138 130 140 145 167 205 224 186 160 154 233 278 166 164 156 152 154 124 121 234 274 302 96 131 271 287 263 245 273 278 282 287 280 272 265 253 240 239 237 225 222
329 329 330 329 331 335 336 329 331 333 320 330 337 333 307 257 216 219 246 251 274 107 127 238 134 111 97 151 161 138 253 344 94 165 160 164 183 64 168 196 157 171 176 157 209 272 107 162 175 164 156 186 204 177 163 162 166 256 307 106 134 132 131 125 101 110 324 348 303 227 142 223 276 270 265 302 271 274 275 270 269 264 248 237 240 238 228 221
326 327 328 327 328 326 328 330 325 315 311 326 338 329 284 202 180 169 239 236 272 91 139 130 143 108 76 146 175 61 36 18 84 191 52 153 185 71 171 198 139 167 201 202 220 287 77 195 187 167 177 198 179 132 166 171 176 192 116 91 82 81 80 81 94 111 57 338 250 195 165 206 276 266 182 121 255 259 265 266 266 265 252 234 238 238 232 219
326 327 326 328 329 327 330 323 313 316 319 325 333 325 200 166 161 195 228 235 302 262 146 102 148 139 123 150 198 6 78 16 42 112 68 146 67 40 127 133 105 146 217 270 256 230 50 285 192 175 192 177 115 76 162 161 147 138 112 85 70 54 45 52 45 78 69 286 253 190 180 176 285 275 183 174 228 226 247 280 288 287 265 236 237 235 221 207
327 327 324 328 328 326 329 313 309 320 322 326 332 325 194 173 234 206 216 257 323 258 121 101 167 139 150 164 174 147 111 19 168 155 151 156 122 78 116 113 90 86 10 274 264 233 253 313 197 251 171 131 106 67 21 98 136 124 98 108 95 21 14 29 355 47 122 252 269 235 197 159 238 259 215 245 271 232 216 260 281 284 267 234 226 234 227 213
327 325 322 324 322 316 307 296 307 318 319 324 334 328 232 218 229 220 213 63 308 228 143 177 188 156 169 160 129 163 140 81 190 177 166 160 178 188 193 190 157 121 229 229 239 314 241 212 196 287 184 151 133 97 38 28 153 107 107 127 117 12 6 343 296 128 210 252 271 268 259 175 238 256 269 278 278 257 220 225 242 245 255 249 233 247 272 283
324 322 320 320 318 309 301 299 305 311 316 320 327 320 243 229 214 212 210 197 231 242 96 123 115 142 162 130 123 174 134 148 176 182 182 165 191 209 217 225 196 162 195 194 197 214 277 252 180 176 228 185 166 155 145 188 198 168 152 146 144 143 166 230 242 238 252 272 304 213 213 256 267 271 257 250 258 257 229 215 229 224 229 244 246 274 305 313
321 321 320 319 314 305 301 303 305 306 313 318 319 277 253 242 212 200 212 226 241 23 46 95 108 136 169 169 199 162 138 211 169 169 195 171 195 217 213 229 227 203 83 150 195 191 217 267 195 183 188 171 183 189 163 149 164 186 170 142 162 169 178 204 203 199 225 254 313 240 199 203 224 257 243 232 249 267 253 219 226 233 233 238 267 290 294 285
318 319 321 320 312 305 302 303 304 304 308 318 283 253 243 243 227 212 217 224 238 17 21 25 115 155 201 214 220 183 187 200 161 172 201 188 206 211 196 215 213 192 152 192 219 176 209 257 222 190 156 162 181 189 139 130 152 205 145 116 201 196 148 147 183 172 152 167 267 220 228 222 220 275 279 252 244 253 248 234 220 235 243 238 261 266 257 258
320 322 324 320 309 308 310 307 301 287 252 204 252 244 237 247 248 251 252 230 235 38 53 272 148 169 217 194 178 220 227 128 160 180 205 207 224 221 206 215 205 197 194 196 200 145 200 270 336 109 145 171 182 170 156 160 157 160 169 186 209 157 111 112 233 82 86 228 241 186 245 276 296 280 269 251 253 253 238 229 219 227 229 220 238 241 234 235
325 328 320 306 305 312 320 316 299 249 195 169 234 246 246 253 260 283 302 307 321 6 214 246 208 167 193 205 193 199 190 126 170 182 186 196 221 218 212 219 199 202 212 212 234 194 185 269 339 159 183 205 206 122 161 230 133 141 191 194 145 66 96 110 229 351 60 242 262 202 233 260 278 265 270 235 246 253 244 230 225 232 213 213 232 229 225 224
324 320 299 292 303 325 341 335 217 179 166 182 239 251 253 263 269 277 297 314 322 326 293 261 222 166 182 199 189 182 184 182 176 182 186 189 213 204 202 213 198 204 212 211 238 286 176 223 285 323 192 216 41 110 170 296 143 151 217 191 133 169 198 130 181 204 182 226 267 264 242 241 218 233 264 225 226 247 255 235 219 231 218 214 229 223 222 221
318 311 282 281 301 322 321 328 133 148 163 218 241 250 257 275 274 275 294 309 311 307 289 275 269 235 212 203 184 176 187 191 180 186 189 185 210 193 185 195 206 207 204 193 207 240 132 219 251 317 247 143 79 189 199 197 186 24 343 195 138 166 188 172 173 173 171 202 242 282 283 241 224 212 210 225 231 240 249 227 216 229 220 213 218 211 211 208
315 288 255 277 289 292 307 41 114 166 221 230 244 254 269 284 285 287 295 306 311 303 292 303 302 289 269 244 222 185 193 200 192 196 200 189 208 209 186 186 199 203 190 187 203 212 116 223 225 68 293 230 172 209 205 186 174 157 166 186 191 156 147 198 222 127 134 174 209 259 268 253 241 189 191 216 227 228 221 203 216 230 220 215 213 201 199 196
297 229 265 287 279 255 272 52 86 209 226 243 248 256 268 276 285 290 292 295 293 275 284 303 296 294 298 285 276 247 205 209 201 197 204 200 212 230 194 183 182 167 161 181 207 205 190 218 203 131 204 217 202 233 230 186 186 190 190 191 192 186 158 181 228 192 136 181 184 200 256 262 244 192 201 213 223 231 215 188 217 236 222 222 218 202 201 198
234 251 260 287 265 225 63 2 246 217 234 245 242 253 265 267 269 279 286 290 282 266 274 281 279 284 286 278 276 272 249 227 213 204 201 205 213 223 196 177 173 156 152 179 205 203 190 163 181 182 203 211 209 342 338 199 202 210 230 215 195 195 194 198 217 198 155 221 175 142 262 274 247 185 206 225 231 237 201 190 221 245 232 232 234 212 210 212
230 248 266 275 261 240 75 263 248 248 246 253 269 264 260 260 264 270 278 284 282 275 269 266 278 286 283 292 303 302 305 275 226 217 213 212 218 221 194 168 163 159 161 179 196 198 185 126 196 204 212 339 340 335 3 43 156 215 237 225 198 208 214 203 192 158 163 217 195 191 248 261 289 208 211 258 269 242 221 210 222 250 256 249 238 215 204 209
251 234 268 275 254 228 199 232 239 242 247 257 263 257 256 253 252 258 265 268 269 277 274 270 276 274 277 298 307 301 305 291 242 237 234 228 231 222 189 171 168 166 172 178 176 185 185 180 198 198 170 180 93 203 260 222 199 212 228 215 202 214 213 180 82 112 222 218 193 206 242 245 285 316 314 307 276 255 254 230 217 242 254 245 233 221 209 208
295 229 246 275 230 197 196 225 221 232 252 258 258 259 264 263 245 241 252 261 256 258 271 272 271 272 276 286 290 284 277 262 257 258 243 242 265 252 183 183 181 177 188 188 176 175 181 183 185 189 204 206 196 203 206 195 196 206 216 204 202 204 196 193 215 213 229 222 192 208 242 251 293 323 328 300 262 258 260 239 220 241 242 239 235 223 214 207
316 250 253 328 239 193 212 227 217 221 237 244 259 262 249 254 263 240 240 256 252 245 259 266 269 273 267 266 278 281 276 275 282 290 280 259 259 279 203 198 193 190 200 196 178 167 175 196 191 197 210 217 224 226 152 132 157 196 210 207 204 201 195 200 216 213 224 232 223 230 243 259 266 250 248 277 252 245 257 247 236 244 239 237 237 226 219 214
227 228 182 268 297 263 249 244 230 229 236 237 246 256 237 245 267 254 225 240 253 255 262 258 256 263 263 268 280 284 294 308 305 300 299 281 271 324 312 247 212 201 200 195 183 169 178 216 202 206 217 221 229 226 168 148 174 198 207 207 202 199 195 199 214 220 222 230 243 243 237 245 253 242 216 247 250 247 262 258 246 241 235 229 225 216 215 223
220 212 180 178 195 232 229 229 223 229 243 245 242 249 251 251 257 262 255 258 265 262 258 255 254 262 278 287 295 299 306 313 302 292 310 316 324 343 335 312 266 227 215 205 190 174 195 221 207 209 222 227 232 228 187 171 189 196 202 204 199 196 194 198 215 225 223 223 243 247 239 236 247 249 230 228 234 236 248 249 234 226 234 221 206 203 211 219
236 241 234 193 190 211 222 226 222 228 239 241 238 236 246 254 256 257 264 275 272 255 239 256 265 268 274 273 271 283 286 292 293 290 324 335 331 345 330 311 310 300 285 262 228 201 204 216 205 207 221 228 233 230 196 186 204 204 202 202 196 194 196 199 211 223 226 226 236 246 249 245 245 251 243 227 217 227 240 224 163 203 231 220 206 214 220 219
210 222 229 222 237 231 232 236 235 241 241 235 239 240 242 254 256 255 249 238 250 254 234 240 256 262 268 266 260 259 253 261 279 283 307 326 321 338 321 285 311 326 322 314 285 252 226 212 203 204 219 227 229 229 213 205 216 217 211 205 196 193 196 200 211 222 225 229 236 246 255 257 252 251 249 227 203 224 241 230 218 233 235 227 221 221 222 223
225 233 222 191 261 237 229 232 227 237 243 229 235 241 240 246 248 250 251 234 235 251 249 246 257 262 266 267 261 256 252 253 258 262 275 295 283 286 292 269 287 305 306 307 298 273 246 224 207 205 220 225 220 222 221 218 226 229 221 204 190 193 196 200 210 218 217 223 235 244 253 258 253 238 236 220 198 219 235 238 249 256 244 235 233 225 218 222
230 242 232 210 252 239 233 234 221 225 237 224 230 237 238 244 245 246 257 246 230 239 245 247 252 255 261 263 259 256 255 246 237 247 263 267 265 268 264 257 261 267 271 278 286 280 264 244 216 209 220 220 214 217 217 217 228 235 219 198 191 196 201 204 213 222 220 216 223 233 240 245 233 180 206 216 206 216 226 227 240 251 247 241 236 227 219 220